Location: Phoenix
(33.4480°N, 112.0730°W)
Time: 02:45:08
(UTC-07:00)

ISS - All Passes

Search period start: 31 March 2015 00:00
Search period end: 10 April 2015 00:00
Orbit: 396 x 405 km, 51.6° (Epoch: 31 March)

Date Brightness Start Highest point End Pass type
(mag) Time Alt. Az. Time Alt. Az. Time Alt. Az.
31 Mar - 04:49:00 10° NW 04:52:06 44° NE 04:55:12 10° ESE visible
31 Mar - 06:26:52 10° WSW 06:28:14 12° SW 06:29:28 10° SSW daylight
31 Mar - 21:24:52 10° WSW 21:28:04 56° NW 21:31:17 10° NE night (unlit)
01 Apr - 03:55:56 10° NNW 03:58:32 22° NE 04:01:10 10° E visible
01 Apr - 05:32:09 10° WNW 05:34:55 26° SW 05:37:39 10° S visible
01 Apr - 20:31:24 10° SW 20:34:36 60° SE 20:37:50 10° NE visible
01 Apr - 22:09:29 10° WNW 22:11:18 14° NNW 22:13:02 10° N night (unlit)
02 Apr - 03:03:13 10° N 03:04:49 13° NNE 03:06:28 10° ENE night (unlit)
02 Apr - 04:38:19 10° NW 04:41:32 63° SW 04:44:42 10° SE visible
02 Apr - 19:38:28 10° S 19:41:12 25° SE 19:43:58 10° ENE visible
02 Apr - 21:14:51 10° W 21:17:34 23° NW 21:20:15 10° NNE visible
03 Apr - 03:44:51 10° NW 03:48:01 52° NE 03:51:10 10° ESE visible
03 Apr - 18:46:42 10° SSE 18:47:49 12° SE 18:49:03 10° ESE daylight
03 Apr - 20:20:46 10° WSW 20:23:55 47° NW 20:27:05 10° NE visible
04 Apr - 02:51:38 10° NNW 02:54:23 25° NE 02:57:09 10° E night (unlit)
04 Apr - 04:28:06 10° WNW 04:30:42 22° SW 04:33:15 10° S night (unlit)
04 Apr - 19:27:06 10° SW 19:30:21 73° SE 19:33:36 10° NE visible
04 Apr - 21:05:37 10° NW 21:07:06 12° NNW 21:08:32 10° N visible
05 Apr - 01:58:43 10° N 02:00:36 15° NNE 02:02:33 10° ENE night (unlit)
05 Apr - 03:34:05 10° NW 03:37:14 52° SW 03:40:22 10° SSE night (unlit)
05 Apr - 18:33:57 10° SSW 18:36:50 30° SE 18:39:45 10° ENE daylight
05 Apr - 20:10:42 10° W 20:13:16 21° NW 20:15:48 10° NNE visible
06 Apr - 02:40:27 10° NW 02:43:40 63° NE 02:46:51 10° SE night (unlit)
06 Apr - 17:41:41 10° SSE 17:43:21 14° SE 17:45:07 10° E daylight
06 Apr - 19:16:24 10° WSW 19:19:30 40° NW 19:22:35 10° NNE visible
07 Apr - 01:47:05 10° NNW 01:49:57 29° NE 01:52:50 10° E night (unlit)
07 Apr - 03:23:50 10° W 03:26:13 19° SW 03:28:32 10° S night (unlit)
07 Apr - 18:22:34 10° SW 18:25:49 87° SE 18:29:05 10° NE daylight
07 Apr - 20:01:32 10° NW 20:02:38 11° NNW 20:03:40 10° N visible
08 Apr - 00:54:00 10° N 00:56:07 16° NNE 00:58:16 10° ENE night (unlit)
08 Apr - 02:29:35 10° WNW 02:32:41 43° SW 02:35:44 10° SSE night (unlit)
08 Apr - 17:29:13 10° SSW 17:32:12 35° SE 17:35:14 10° ENE daylight
08 Apr - 19:06:17 10° W 19:08:41 19° NNW 19:11:04 10° NNE daylight
09 Apr - 01:35:48 10° NW 01:39:02 76° NE 01:42:15 10° SE night (unlit)
09 Apr - 16:36:36 10° SSE 16:38:37 16° SE 16:40:45 10° E daylight
09 Apr - 18:11:48 10° WSW 18:14:49 34° NW 18:17:51 10° NNE daylight
